| time (UTC) | temp F | wind direction | speed MPH | gust MPH | rain 1hr in | rain 24hr in | rain mn in | humidity % | barometer mb |
| 20260506044653 | 50 | 164 | 11.0 | 16.0 | 0.00 | 0.00 | 0.00 | 85 | 1008.5 |
| 20260506043047 | 50 | 186 | 8.0 | 14.0 | 0.00 | 0.00 | 0.00 | 85 | 1008.7 |
| 20260506041559 | 50 | 146 | 12.0 | 15.0 | 0.00 | 0.00 | 0.00 | 85 | 1008.0 |
| 20260506040050 | 50 | 175 | 10.0 | 18.0 | 0.00 | 0.00 | 0.00 | 85 | 1008.3 |
| 20260506034621 | 51 | 173 | 11.0 | 17.0 | 0.00 | 0.00 | 0.00 | 85 | 1008.2 |
| 20260506033057 | 51 | 174 | 12.0 | 18.0 | 0.00 | 0.00 | 0.00 | 85 | 1007.8 |
| 20260506031552 | 51 | 176 | 11.0 | 17.0 | 0.00 | 0.00 | 0.00 | 85 | 1008.1 |
| 20260506030052 | 51 | 178 | 9.0 | 12.0 | 0.00 | 0.00 | 0.00 | 84 | 1008.2 |
| 20260506024743 | 51 | 167 | 8.0 | 14.0 | 0.00 | 0.00 | 0.00 | 83 | 1008.3 |
| 20260505213052 | 55 | 178 | 19.0 | 29.0 | 0.00 | 0.00 | 0.00 | 79 | 1004.5 |
| 20260505211600 | 55 | 173 | 20.0 | 28.0 | 0.00 | 0.00 | 0.00 | 78 | 1004.4 |
| 20260505210050 | 54 | 161 | 18.0 | 24.0 | 0.00 | 0.00 | 0.00 | 80 | 1004.4 |
| 20260505204600 | 54 | 165 | 17.0 | 24.0 | 0.00 | 0.00 | 0.00 | 80 | 1004.5 |
| 20260505203049 | 53 | 165 | 17.0 | 24.0 | 0.00 | 0.00 | 0.00 | 81 | 1004.4 |
| 20260505201551 | 54 | 167 | 18.0 | 27.0 | 0.00 | 0.00 | 0.00 | 80 | 1004.7 |
| 20260505200049 | 54 | 192 | 16.0 | 27.0 | 0.00 | 0.00 | 0.00 | 80 | 1004.6 |
| 20260505194549 | 53 | 169 | 16.0 | 26.0 | 0.00 | 0.00 | 0.00 | 81 | 1004.9 |
| 20260505193049 | 54 | 186 | 16.0 | 24.0 | 0.00 | 0.00 | 0.00 | 82 | 1005.3 |
| 20260505191555 | 53 | 194 | 17.0 | 25.0 | 0.00 | 0.00 | 0.00 | 83 | 1005.6 |
| 20260505190048 | 53 | 172 | 15.0 | 19.0 | 0.00 | 0.00 | 0.00 | 82 | 1005.6 |
| 20260505184548 | 53 | 180 | 13.0 | 21.0 | 0.00 | 0.00 | 0.00 | 83 | 1005.8 |
| 20260505183048 | 53 | 179 | 12.0 | 18.0 | 0.00 | 0.00 | 0.00 | 82 | 1006.0 |
| 20260505182049 | 54 | 180 | 14.0 | 28.0 | 0.00 | 0.00 | 0.00 | 81 | 1006.0 |
| 20260505124550 | 49 | 171 | 11.0 | 14.0 | 0.00 | 0.00 | 0.00 | 86 | 1008.3 |
| 20260505123107 | 49 | 171 | 10.0 | 14.0 | 0.00 | 0.00 | 0.00 | 86 | 1008.1 |
| 20260505121546 | 49 | 171 | 10.0 | 16.0 | 0.00 | 0.00 | 0.00 | 86 | 1008.3 |
| 20260505120051 | 49 | 173 | 11.0 | 15.0 | 0.00 | 0.00 | 0.00 | 86 | 1008.4 |
| 20260505091548 | 48 | 168 | 7.0 | 11.0 | 0.00 | 0.00 | 0.00 | 84 | 1008.2 |
| 20260505090054 | 48 | 152 | 7.0 | 12.0 | 0.00 | 0.00 | 0.00 | 84 | 1008.5 |
| 20260505084552 | 48 | 163 | 7.0 | 12.0 | 0.00 | 0.00 | 0.00 | 84 | 1008.5 |
| 20260505083117 | 48 | 193 | 6.0 | 9.0 | 0.00 | 0.00 | 0.00 | 84 | 1008.5 |
| 20260505081552 | 48 | 182 | 6.0 | 10.0 | 0.00 | 0.00 | 0.00 | 84 | 1008.6 |
| 20260505080050 | 48 | 183 | 7.0 | 10.0 | 0.00 | 0.00 | 0.00 | 85 | 1008.5 |
| 20260505074552 | 48 | 173 | 7.0 | 12.0 | 0.00 | 0.00 | 0.00 | 84 | 1008.6 |
| 20260505073048 | 49 | 178 | 9.0 | 12.0 | 0.00 | 0.00 | 0.00 | 83 | 1008.6 |
| 20260505071547 | 49 | 173 | 9.0 | 13.0 | 0.00 | 0.00 | 0.00 | 83 | 1008.4 |
| 20260505070055 | 49 | 174 | 8.0 | 11.0 | 0.00 | 0.00 | 0.00 | 82 | 1008.3 |
| 20260505064601 | 49 | 173 | 7.0 | 11.0 | 0.00 | 0.00 | 0.00 | 81 | 1008.4 |
| 20260505063055 | 50 | 164 | 7.0 | 11.0 | 0.00 | 0.00 | 0.00 | 80 | 1008.4 |
| 20260505061604 | 50 | 163 | 6.0 | 11.0 | 0.00 | 0.00 | 0.00 | 80 | 1008.5 |
| 20260505054601 | 51 | 168 | 7.0 | 11.0 | 0.00 | 0.00 | 0.00 | 79 | 1008.3 |